VIASAT-2

Last updated on Tue Sep 22 2026 00:03:14 GMT+0000 (Coordinated Universal Time)

1 42740U 17029A 26264.47529061 -.00000269 00000+0 00000+0 0 9996 2 42740 0.0217 246.3132 0000931 249.3658 325.8662 1.00272110 34160
UTC large
Height (km)
Speed (km/s)
/
Latitude / Longitude
Inclination (degrees)
Orbital Period (minutes)
Azimuth
Elevation
Range (km)
Doppler Factor

Next 0 passes for location: London (51.5072 / 0.1276)

No passes found over London.
VIASAT-2